[[{"header":{"parameterUnit":"m.s-1","parameterCategory":1,"la1":30.2991,"la2":30.254,"lo1":-89.0895,"lo2":-89.0444,"dy":0.0017,"dx":0.0017,"nx":28,"ny":28,"refTime":"2025-04-24T03:00:00:Z","depth":0,"parameterNumber":2,"parameterNumberName":"U-component_of_WINDS"},"data":[0,0,0,0,0,0,0,0,0,0,0,0,0,0,0,0,0,0,0,0,0,0,0,0,0,0,0,0,0,0,0,0,0,0,0,0,0,0,0,0,0,0,0,0,0,0,0,0,0,0,0,0,0,0,0,0,0,0,-0.8554,-0.8553,0,-0.8509,-0.8509,-0.8508,-0.8469,-0.8469,-0.8468,-0.8468,-0.8422,-0.8421,-0.842,0,0,0,0,0,0,0,0,0,0,0,0,0,-0.8604,-0.8604,-0.8554,-0.8553,-0.8552,-0.8509,-0.8509,-0.8508,-0.8469,-0.8469,-0.8468,-0.8468,-0.8422,-0.8421,-0.842,0,0,0,0,0,0,0,0,0,0,0,0,0,-0.8573,-0.8603,-0.8554,-0.8528,-0.8525,-0.8509,-0.8509,-0.8508,-0.8469,-0.8469,-0.8468,-0.8467,-0.8422,-0.8421,-0.842,-0.8426,0,0,-0.8416,-0.8416,0,0,0,0,0,0,0,0,-0.8575,-0.8572,-0.8532,-0.853,-0.8527,-0.8494,-0.851,-0.848,-0.847,-0.8491,-0.8468,-0.8467,-0.8446,-0.8443,-0.8436,-0.8424,-0.8422,-0.8416,-0.8415,-0.8415,-0.8415,0,0,0,0,0,0,0,-0.8577,-0.8573,-0.8536,-0.8532,-0.8528,-0.8519,-0.8513,-0.8504,-0.8473,-0.8489,-0.8486,-0.8481,-0.8445,-0.8438,-0.8435,-0.8421,-0.8416,-0.8415,-0.8414,-0.8414,-0.8412,-0.8412,0,0,0,0,0,0,-0.8584,-0.8575,-0.8537,-0.8535,-0.855,-0.8518,-0.8512,-0.8505,-0.8473,-0.8467,-0.8482,-0.8479,-0.844,-0.8436,-0.8433,-0.8438,-0.8415,-0.8414,-0.8413,-0.8411,-0.8412,-0.8413,0,0,0,0,0,0,-0.8585,-0.8581,-0.8539,-0.8554,-0.8548,-0.8518,-0.851,-0.8505,-0.8497,-0.8467,-0.8462,-0.848,-0.8439,-0.8435,-0.8428,-0.8436,-0.8413,-0.8412,-0.841,-0.8411,-0.8412,-0.8448,0,0,0,0,0,0,-0.8586,-0.8581,-0.8583,-0.8555,-0.8548,-0.8535,-0.8511,-0.8504,-0.8496,-0.8492,-0.8465,-0.8459,-0.8438,-0.843,-0.8427,-0.8434,-0.8411,-0.8409,-0.8411,-0.8412,-0.8446,-0.845,-0.8454,0,0,0,0,0,-0.8588,-0.8595,-0.8583,-0.8579,-0.8549,-0.8536,-0.8532,-0.8508,-0.8496,-0.8498,-0.8479,-0.846,-0.8436,-0.843,-0.8426,-0.8433,-0.8409,-0.841,-0.8412,-0.8444,-0.8449,-0.8454,0,0,0,0,0,0,-0.8625,-0.8591,-0.8578,-0.8575,-0.8559,-0.8529,-0.853,-0.8514,-0.85,-0.8497,-0.8468,-0.8462,-0.8459,-0.8445,-0.8439,-0.8437,-0.842,-0.8421,-0.8446,-0.845,-0.8454,-0.8457,-0.841,0,0,0,0,0,-0.8633,-0.8624,-0.8595,-0.8595,-0.8588,-0.8561,-0.8554,-0.8537,-0.8519,-0.8511,-0.8492,-0.8475,-0.8463,-0.8456,-0.8444,-0.8444,-0.8437,-0.8447,-0.8451,-0.8454,-0.8455,-0.8454,-0.8458,-0.8418,-0.8418,-0.8417,0,0,-0.8648,-0.8629,-0.8625,-0.8602,-0.8587,-0.858,-0.8555,-0.8548,-0.8542,-0.851,-0.8503,-0.8488,-0.8467,-0.8464,-0.8462,-0.8452,-0.8465,-0.8456,-0.8459,-0.8458,-0.8456,-0.846,-0.8463,-0.8419,-0.8418,-0.8418,0,0,-0.8673,-0.8657,-0.8656,-0.8642,-0.862,-0.8603,-0.8602,-0.8576,-0.8565,-0.8557,-0.8533,-0.8526,-0.8506,-0.8492,-0.8483,-0.8503,-0.8486,-0.85,-0.852,-0.852,-0.8523,-0.8526,-0.8533,-0.8536,-0.8501,-0.8501,-0.8501,0,-0.8695,-0.8683,-0.8658,-0.8652,-0.8643,-0.8614,-0.8613,-0.8601,-0.8576,-0.857,-0.856,-0.8536,-0.852,-0.8513,-0.8518,-0.8511,-0.851,-0.8503,-0.8525,-0.8527,-0.8529,-0.8536,-0.8539,-0.8503,-0.8503,-0.8503,-0.8503,0,-0.8711,-0.8703,-0.8705,-0.8682,-0.8673,-0.8669,-0.8644,-0.8638,-0.8622,-0.8605,-0.8598,-0.8578,-0.8561,-0.8558,-0.8542,-0.855,-0.8544,-0.853,-0.8512,-0.8535,-0.8541,-0.8543,-0.8506,-0.8505,-0.8505,-0.8504,0,0,-0.8757,-0.8721,-0.8722,-0.8712,-0.8686,-0.8679,-0.8675,-0.8659,-0.8654,-0.8638,-0.8633,-0.8618,-0.8605,-0.8594,-0.8577,-0.8577,-0.8594,-0.8562,-0.8561,-0.8569,-0.8601,-0.8612,-0.8615,-0.8583,-0.8583,-0.8583,-0.8603,0,-0.8778,-0.8768,-0.8745,-0.8743,-0.8735,-0.8708,-0.8704,-0.8688,-0.8673,-0.8664,-0.8646,-0.8636,-0.8619,-0.8612,-0.8611,-0.8592,-0.86,-0.8591,-0.8578,-0.8578,-0.8584,-0.8618,-0.863,-0.8649,-0.8605,-0.8605,-0.8606,0,-0.88,-0.8786,-0.8783,-0.8758,-0.8754,-0.8751,-0.8734,-0.8726,-0.8708,-0.8696,-0.8685,-0.8666,-0.8659,-0.8644,-0.8635,-0.8629,-0.8622,-0.8612,-0.8613,-0.861,-0.8593,-0.8617,-0.8655,-0.8658,-0.8609,-0.8609,-0.8608,0,-0.8834,-0.8814,-0.881,-0.8802,-0.8773,-0.8771,-0.8759,-0.874,-0.8732,-0.8718,-0.8712,-0.8697,-0.8689,-0.8678,-0.8656,-0.8647,-0.865,-0.8632,-0.864,-0.8641,-0.8641,-0.8642,-0.8679,-0.8638,-0.8638,-0.8638,-0.8638,0,-0.8859,-0.8858,-0.8825,-0.8822,-0.882,-0.8795,-0.8793,-0.8779,-0.8762,-0.8756,-0.8732,-0.8727,-0.8698,-0.8689,-0.8671,-0.8667,-0.8663,-0.8654,-0.8649,-0.8656,-0.8657,-0.8651,-0.8649,-0.8638,-0.8638,-0.8638,-0.8638,0,-0.8896,-0.8874,-0.8867,-0.8841,-0.8834,-0.8834,-0.8811,-0.8807,-0.879,-0.8783,-0.878,-0.8753,-0.8742,-0.8719,-0.8701,-0.8689,-0.8689,-0.8681,-0.8695,-0.8692,-0.8702,-0.8701,-0.8736,-0.8739,-0.8697,-0.8697,-0.8698,0,-0.8914,-0.8912,-0.8886,-0.888,-0.8869,-0.886,-0.8852,-0.8827,-0.8819,-0.8798,-0.8797,-0.8784,-0.8772,-0.8756,-0.8735,-0.8721,-0.8712,-0.8726,-0.871,-0.8717,-0.8712,-0.8713,-0.8713,-0.8729,-0.8729,-0.873,-0.873,0,-0.8947,-0.8936,-0.8925,-0.8911,-0.8902,-0.889,-0.8876,-0.8872,-0.8844,-0.8837,-0.8825,-0.8816,-0.8798,-0.8786,-0.8769,-0.8757,-0.8739,-0.8736,-0.8737,-0.8743,-0.8752,-0.8747,-0.8704,-0.8735,-0.8734,-0.8734,-0.8734,-0.8733,-0.8975,-0.8972,-0.8953,-0.8942,-0.8929,-0.8917,-0.8912,-0.8895,-0.8885,-0.8869,-0.8855,-0.8845,-0.8826,-0.8802,-0.8791,-0.8782,-0.8774,-0.8775,-0.8776,-0.8776,-0.8779,-0.8754,-0.8779,-0.8779,-0.8779,-0.8779,-0.8779,0,-0.9007,-0.8993,-0.8983,-0.8965,-0.8956,-0.8941,-0.8925,-0.8919,-0.891,-0.8895,-0.8884,-0.8871,-0.8858,-0.8837,-0.8823,-0.882,-0.8812,-0.8817,-0.8817,-0.8815,-0.8788,-0.8788,-0.8825,-0.8825,-0.8825,-0.8825,-0.8825,-0.8825,-0.9022,-0.9018,-0.9005,-0.8994,-0.898,-0.897,-0.8962,-0.8951,-0.8938,-0.8925,-0.8915,-0.8901,-0.8883,-0.8868,-0.8856,-0.885,-0.8846,-0.8854,-0.8845,-0.8821,-0.8816,-0.8812,-0.8813,-0.8853,-0.8853,-0.8873,-0.8873,-0.8873]},{"header":{"parameterUnit":"m.s-1","parameterCategory":1,"la1":30.2991,"la2":30.254,"lo1":-89.0895,"lo2":-89.0444,"dy":0.0017,"dx":0.0017,"nx":28,"ny":28,"refTime":"2025-04-24T03:00:00:Z","depth":0,"parameterNumber":3,"parameterNumberName":"V-component_of_WINDS"},"data":[0,0,0,0,0,0,0,0,0,0,0,0,0,0,0,0,0,0,0,0,0,0,0,0,0,0,0,0,0,0,0,0,0,0,0,0,0,0,0,0,0,0,0,0,0,0,0,0,0,0,0,0,0,0,0,0,0,0,2.8126,2.8127,0,2.813,2.813,2.813,2.8096,2.8095,2.8094,2.8093,2.8096,2.8097,2.8098,0,0,0,0,0,0,0,0,0,0,0,0,0,2.8088,2.8089,2.8126,2.8127,2.8127,2.813,2.813,2.813,2.8096,2.8095,2.8094,2.8093,2.8096,2.8097,2.8098,0,0,0,0,0,0,0,0,0,0,0,0,0,2.81,2.809,2.8126,2.811,2.8108,2.813,2.813,2.813,2.8096,2.8095,2.8093,2.8092,2.8096,2.8097,2.8098,2.8136,0,0,2.8103,2.8104,0,0,0,0,0,0,0,0,2.8099,2.8101,2.8112,2.8111,2.8109,2.8111,2.8118,2.8132,2.8097,2.8101,2.8093,2.8091,2.8102,2.8103,2.8107,2.8136,2.8136,2.8103,2.8104,2.8105,2.8105,0,0,0,0,0,0,0,2.8099,2.8101,2.8128,2.8112,2.8111,2.8102,2.8102,2.8121,2.811,2.81,2.8098,2.8099,2.8101,2.8106,2.8107,2.8137,2.8103,2.8104,2.8105,2.8106,2.8196,2.8198,0,0,0,0,0,0,2.81,2.8101,2.8128,2.8128,2.8101,2.8104,2.8104,2.8112,2.8109,2.8107,2.81,2.8097,2.8104,2.8105,2.8107,2.815,2.8105,2.8106,2.8107,2.8195,2.8197,2.8198,0,0,0,0,0,0,2.8099,2.8103,2.8128,2.8114,2.8116,2.8106,2.8115,2.8113,2.8117,2.8109,2.8107,2.8107,2.8103,2.8105,2.8129,2.815,2.8107,2.8108,2.8193,2.8196,2.8198,2.8238,0,0,0,0,0,0,2.8099,2.8103,2.8117,2.8114,2.8117,2.815,2.8117,2.8114,2.812,2.8116,2.8115,2.8113,2.8102,2.8127,2.8131,2.8151,2.8109,2.8191,2.8194,2.8197,2.8235,2.8241,2.8247,0,0,0,0,0,2.8097,2.8129,2.8118,2.8122,2.8135,2.8152,2.8153,2.814,2.8122,2.8136,2.8131,2.8113,2.8147,2.813,2.8133,2.8155,2.819,2.8193,2.8197,2.8232,2.824,2.8247,0,0,0,0,0,0,2.8134,2.8128,2.8116,2.8148,2.815,2.8146,2.8163,2.8149,2.8157,2.8153,2.8136,2.8136,2.8163,2.8161,2.8142,2.8191,2.8165,2.817,2.8191,2.8199,2.8205,2.8204,2.811,0,0,0,0,0,2.8146,2.816,2.8154,2.8182,2.8184,2.8174,2.818,2.817,2.8172,2.8173,2.8169,2.8172,2.8183,2.8191,2.8201,2.8235,2.8233,2.8251,2.8257,2.8262,2.8266,2.8283,2.8291,2.821,2.821,2.821,0,0,2.8171,2.8169,2.8179,2.8189,2.819,2.8205,2.8175,2.8192,2.8202,2.8175,2.8198,2.8196,2.8197,2.8226,2.8239,2.8226,2.8288,2.8267,2.8271,2.8272,2.8288,2.8295,2.8302,2.8212,2.8212,2.8211,0,0,2.8223,2.8223,2.8246,2.8248,2.825,2.8242,2.8248,2.8245,2.8243,2.8265,2.8245,2.8258,2.8278,2.8279,2.8283,2.8336,2.8319,2.8339,2.8371,2.8389,2.8395,2.84,2.8419,2.8426,2.8343,2.8343,2.8343,0,2.8253,2.8274,2.826,2.8278,2.8283,2.826,2.8283,2.8285,2.829,2.8294,2.8279,2.8303,2.8303,2.8332,2.8345,2.8349,2.8354,2.8339,2.8395,2.8401,2.8406,2.8423,2.843,2.8346,2.8345,2.8345,2.8345,0,2.8311,2.8326,2.8345,2.835,2.8357,2.8378,2.8367,2.8376,2.8365,2.8359,2.8382,2.838,2.8389,2.8396,2.8385,2.8423,2.8415,2.8398,2.8372,2.8416,2.8432,2.8438,2.8349,2.8348,2.8348,2.8347,0,0,2.8386,2.8383,2.839,2.8392,2.8393,2.8404,2.8423,2.8432,2.844,2.8444,2.846,2.8477,2.8462,2.8466,2.8455,2.847,2.8512,2.8451,2.8451,2.8462,2.8553,2.8565,2.8573,2.8501,2.8502,2.8503,2.8552,0,2.8436,2.847,2.8457,2.8491,2.8505,2.8483,2.8499,2.8501,2.8496,2.8507,2.8502,2.8514,2.8493,2.8495,2.8509,2.8504,2.8529,2.85,2.8515,2.8516,2.8515,2.8581,2.8594,2.8641,2.8559,2.856,2.856,0,2.8499,2.8506,2.8542,2.8539,2.8544,2.856,2.8567,2.8578,2.8579,2.8574,2.8579,2.8565,2.8584,2.8558,2.8583,2.8563,2.8569,2.8567,2.8569,2.8569,2.854,2.8583,2.8656,2.8662,2.857,2.8569,2.8569,0,2.855,2.8568,2.8591,2.8594,2.8592,2.8603,2.8603,2.8603,2.8609,2.8615,2.8618,2.8627,2.8631,2.8638,2.8626,2.8609,2.8653,2.8627,2.8649,2.865,2.8659,2.8659,2.8733,2.8664,2.8664,2.8664,2.8664,0,2.8607,2.8629,2.8614,2.8628,2.8653,2.8638,2.8662,2.8659,2.866,2.8673,2.8654,2.8667,2.8651,2.8662,2.8654,2.8675,2.8678,2.8674,2.8672,2.8676,2.8676,2.8679,2.8675,2.8665,2.8665,2.8665,2.8664,0,2.8667,2.8658,2.8682,2.8678,2.8677,2.8695,2.8692,2.8705,2.8699,2.8715,2.8719,2.8709,2.8721,2.871,2.8722,2.8716,2.8745,2.8738,2.8745,2.8742,2.8766,2.8763,2.8844,2.8853,2.8779,2.8779,2.878,0,2.8704,2.8721,2.8719,2.8726,2.8727,2.8739,2.8745,2.8732,2.8739,2.8742,2.8754,2.8765,2.8772,2.8793,2.8787,2.8795,2.8788,2.8816,2.8789,2.8793,2.8788,2.8787,2.8788,2.8821,2.8822,2.8822,2.8823,0,2.877,2.8765,2.8774,2.8782,2.879,2.8796,2.88,2.8807,2.8793,2.8802,2.8814,2.882,2.8832,2.8842,2.8849,2.8848,2.8833,2.8831,2.8837,2.8841,2.8844,2.8842,2.8759,2.8829,2.8829,2.8828,2.8828,2.8828,2.882,2.8833,2.8834,2.8845,2.8846,2.8851,2.8862,2.8858,2.8868,2.8876,2.8868,2.8882,2.8883,2.8891,2.8892,2.8903,2.8891,2.89,2.8902,2.8904,2.8907,2.8843,2.8904,2.8904,2.8904,2.8904,2.8903,0,2.8884,2.8883,2.8894,2.89,2.8909,2.8894,2.8898,2.8906,2.8919,2.8921,2.8929,2.8943,2.8953,2.8948,2.8957,2.8966,2.896,2.8969,2.8968,2.8968,2.8917,2.8911,2.8974,2.8974,2.8974,2.8974,2.8974,2.8974,2.8919,2.8941,2.8935,2.8958,2.8957,2.8971,2.8974,2.8978,2.8979,2.8996,2.9004,2.9001,2.9,2.9008,2.9017,2.9015,2.9019,2.9031,2.9026,2.8979,2.8972,2.8965,2.8959,2.9032,2.9032,2.9076,2.9077,2.9077]}]]